[[{"header":{"parameterUnit":"m.s-1","parameterCategory":1,"la1":30.2991,"la2":30.254,"lo1":-89.0895,"lo2":-89.0444,"dy":0.0017,"dx":0.0017,"nx":28,"ny":28,"refTime":"2024-08-02T21:00:00:Z","depth":0,"parameterNumber":2,"parameterNumberName":"U-component_of_WINDS"},"data":[0,0,0,0,0,0,0,0,0,0,0,0,0,0,0,0,0,0,0,0,0,0,0,0,0,0,0,0,0,0,0,0,0,0,0,0,0,0,0,0,0,0,0,0,0,0,0,0,0,0,0,0,0,0,0,0,0,0,4.6896,4.6896,0,4.6932,4.6933,4.6933,4.6818,4.6814,4.6811,4.6807,4.6846,4.685,4.6854,0,0,0,0,0,0,0,0,0,0,0,0,0,4.6724,4.6728,4.6896,4.6896,4.6896,4.6932,4.6933,4.6933,4.6818,4.6814,4.681,4.6806,4.6844,4.6849,4.6855,0,0,0,0,0,0,0,0,0,0,0,0,0,4.6784,4.6729,4.6895,4.6843,4.6839,4.6932,4.6933,4.6933,4.6819,4.6814,4.6809,4.6804,4.6843,4.6849,4.6855,4.7001,0,0,4.6875,4.6878,0,0,0,0,0,0,0,0,4.678,4.679,4.6851,4.6847,4.6842,4.6865,4.6886,4.6956,4.6821,4.6827,4.6807,4.6801,4.6857,4.6861,4.688,4.7003,4.7004,4.6876,4.688,4.6882,4.6884,0,0,0,0,0,0,0,4.6776,4.6788,4.691,4.6852,4.6847,4.6818,4.682,4.6899,4.6871,4.6826,4.6818,4.6823,4.6853,4.6874,4.688,4.7005,4.6875,4.6881,4.6885,4.6888,4.7244,4.7249,0,0,0,0,0,0,4.6779,4.6785,4.6909,4.6911,4.6798,4.6825,4.6828,4.6863,4.687,4.6866,4.6828,4.6818,4.6866,4.6873,4.6881,4.7048,4.6882,4.6888,4.6892,4.7239,4.7245,4.7251,0,0,0,0,0,0,4.6776,4.6791,4.6907,4.6846,4.6858,4.6834,4.6874,4.6867,4.6887,4.6871,4.6865,4.6854,4.6862,4.6872,4.6971,4.7048,4.6891,4.6897,4.7232,4.7241,4.7248,4.7387,0,0,0,0,0,0,4.6772,4.6791,4.6846,4.6848,4.6862,4.6998,4.6879,4.6871,4.6899,4.6886,4.6895,4.6891,4.6858,4.6962,4.6977,4.7054,4.6902,4.7225,4.7236,4.7246,4.7375,4.7399,4.7419,0,0,0,0,0,4.6766,4.6885,4.685,4.6865,4.6931,4.7002,4.701,4.697,4.6905,4.696,4.6949,4.6891,4.7038,4.6973,4.6989,4.707,4.722,4.7233,4.7245,4.7365,4.7394,4.7419,0,0,0,0,0,0,4.6894,4.6884,4.6845,4.6969,4.6987,4.6983,4.7051,4.7003,4.704,4.7027,4.6976,4.6979,4.7086,4.7088,4.7016,4.7209,4.7117,4.7134,4.7203,4.7231,4.7252,4.7249,4.6907,0,0,0,0,0,4.6937,4.6996,4.6984,4.7094,4.7105,4.7077,4.7106,4.7073,4.7091,4.7098,4.7094,4.7113,4.7163,4.7197,4.7243,4.7375,4.7374,4.7438,4.746,4.7478,4.7493,4.7559,4.7587,4.7293,4.7293,4.7292,0,0,4.7026,4.7027,4.7068,4.7119,4.713,4.719,4.7084,4.7154,4.7198,4.7109,4.7201,4.7199,4.7217,4.7332,4.7383,4.7337,4.7574,4.7495,4.7509,4.7513,4.7575,4.7603,4.7628,4.7301,4.73,4.7298,0,0,4.7218,4.7226,4.7317,4.7329,4.7345,4.7325,4.7347,4.735,4.7345,4.7436,4.7369,4.7421,4.751,4.7523,4.7542,4.7737,4.7683,4.7754,4.7868,4.7933,4.7957,4.7977,4.8043,4.8068,4.7768,4.7769,4.7769,0,4.7326,4.7415,4.737,4.7443,4.7466,4.7387,4.7477,4.7492,4.7523,4.754,4.7488,4.7595,4.7602,4.7717,4.7764,4.7784,4.7805,4.7751,4.7957,4.7977,4.7995,4.8058,4.8083,4.7777,4.7776,4.7775,4.7774,0,4.7545,4.7608,4.7679,4.7709,4.7741,4.7823,4.7789,4.7826,4.7791,4.7776,4.7869,4.7873,4.7917,4.7942,4.7909,4.8053,4.8023,4.7966,4.7872,4.8032,4.809,4.8114,4.7789,4.7786,4.7783,4.7781,0,0,4.782,4.7822,4.7848,4.7859,4.7871,4.7918,4.7995,4.8037,4.8068,4.8093,4.8154,4.823,4.8175,4.8196,4.8164,4.8222,4.8372,4.8156,4.8155,4.8193,4.8527,4.8568,4.8597,4.8337,4.8341,4.8345,4.8524,0,4.8006,4.8137,4.8097,4.8229,4.8285,4.8209,4.8276,4.829,4.8278,4.8323,4.831,4.8362,4.8288,4.83,4.8354,4.8342,4.8437,4.8329,4.8392,4.8395,4.8387,4.8628,4.8673,4.8842,4.8547,4.8551,4.8553,0,4.8242,4.8272,4.8409,4.8407,4.8429,4.849,4.8523,4.8568,4.8581,4.8568,4.8591,4.8545,4.862,4.8528,4.8628,4.8555,4.8579,4.8577,4.8582,4.8584,4.8482,4.8634,4.8895,4.8919,4.8589,4.8586,4.8584,0,4.8424,4.85,4.859,4.8603,4.8604,4.8648,4.8651,4.8659,4.8685,4.8714,4.873,4.8769,4.8789,4.8819,4.8785,4.8722,4.8889,4.8796,4.8879,4.888,4.8916,4.8913,4.9181,4.8936,4.8936,4.8935,4.8935,0,4.8635,4.8721,4.8672,4.8727,4.882,4.8774,4.8867,4.8862,4.8869,4.8921,4.8859,4.891,4.8862,4.8908,4.8882,4.8967,4.8978,4.8968,4.8959,4.8972,4.8973,4.8985,4.8971,4.8942,4.894,4.8939,4.8938,0,4.8854,4.8825,4.8918,4.8911,4.8911,4.898,4.8973,4.9024,4.9007,4.9073,4.9086,4.906,4.911,4.9079,4.9131,4.9113,4.9223,4.92,4.9218,4.9211,4.9295,4.9286,4.9578,4.9612,4.9348,4.935,4.9352,0,4.8989,4.9053,4.9052,4.9081,4.9088,4.9138,4.9163,4.9119,4.9149,4.9167,4.9215,4.9259,4.9292,4.9377,4.9361,4.94,4.9375,4.9475,4.9381,4.939,4.9373,4.9368,4.9373,4.9493,4.9496,4.9499,4.9501,0,4.9231,4.9213,4.9252,4.9285,4.9317,4.9342,4.9362,4.939,4.9346,4.9382,4.9431,4.9457,4.9508,4.9553,4.9585,4.9587,4.9536,4.9531,4.9552,4.9564,4.957,4.9564,4.9267,4.9524,4.9522,4.952,4.9519,4.9518,4.941,4.9462,4.9468,4.9513,4.9522,4.9541,4.9587,4.9575,4.9615,4.9652,4.9624,4.9683,4.9692,4.9729,4.9738,4.9782,4.9742,4.9773,4.978,4.9788,4.9797,4.9565,4.9788,4.9788,4.9787,4.9786,4.9786,0,4.9646,4.9645,4.9687,4.9715,4.975,4.9698,4.9717,4.9749,4.9801,4.9813,4.9846,4.9902,4.9944,4.9932,4.997,5.0007,4.9985,5.0018,5.0014,5.0014,4.9833,4.981,5.0036,5.0036,5.0036,5.0036,5.0036,5.0035,4.9773,4.9856,4.9838,4.9925,4.9924,4.9979,4.9994,5.001,5.0019,5.0084,5.0118,5.0109,5.0111,5.0147,5.0183,5.0178,5.0194,5.0235,5.0222,5.0052,5.0028,5.0004,4.9982,5.024,5.024,5.0399,5.04,5.0401]},{"header":{"parameterUnit":"m.s-1","parameterCategory":1,"la1":30.2991,"la2":30.254,"lo1":-89.0895,"lo2":-89.0444,"dy":0.0017,"dx":0.0017,"nx":28,"ny":28,"refTime":"2024-08-02T21:00:00:Z","depth":0,"parameterNumber":3,"parameterNumberName":"V-component_of_WINDS"},"data":[0,0,0,0,0,0,0,0,0,0,0,0,0,0,0,0,0,0,0,0,0,0,0,0,0,0,0,0,0,0,0,0,0,0,0,0,0,0,0,0,0,0,0,0,0,0,0,0,0,0,0,0,0,0,0,0,0,0,-0.3177,-0.3177,0,-0.3261,-0.3261,-0.3262,-0.3236,-0.3234,-0.3233,-0.3231,-0.3323,-0.3327,-0.3331,0,0,0,0,0,0,0,0,0,0,0,0,0,-0.3,-0.3003,-0.3176,-0.3177,-0.3179,-0.326,-0.3262,-0.3263,-0.3237,-0.3234,-0.3232,-0.323,-0.3321,-0.3326,-0.3331,0,0,0,0,0,0,0,0,0,0,0,0,0,-0.308,-0.3004,-0.3176,-0.3175,-0.3176,-0.326,-0.3262,-0.3263,-0.3237,-0.3234,-0.3232,-0.3229,-0.332,-0.3326,-0.3332,-0.3424,0,0,-0.3351,-0.3354,0,0,0,0,0,0,0,0,-0.3075,-0.3086,-0.3174,-0.3175,-0.3176,-0.3235,-0.3233,-0.3317,-0.3238,-0.3214,-0.3231,-0.3228,-0.3296,-0.3304,-0.3326,-0.3428,-0.3432,-0.3351,-0.3355,-0.3358,-0.336,0,0,0,0,0,0,0,-0.307,-0.3083,-0.321,-0.3176,-0.3177,-0.3173,-0.3181,-0.3249,-0.3269,-0.3216,-0.3214,-0.3224,-0.3296,-0.332,-0.3328,-0.3434,-0.3351,-0.3357,-0.3361,-0.3363,-0.3618,-0.3621,0,0,0,0,0,0,-0.3063,-0.3078,-0.3207,-0.3212,-0.3118,-0.3178,-0.3187,-0.3219,-0.3269,-0.3273,-0.3226,-0.3223,-0.3311,-0.3321,-0.3331,-0.3444,-0.3358,-0.3364,-0.3367,-0.3615,-0.3619,-0.3622,0,0,0,0,0,0,-0.3059,-0.3074,-0.3204,-0.3145,-0.3161,-0.3184,-0.322,-0.3222,-0.3246,-0.3276,-0.3281,-0.3247,-0.3309,-0.3322,-0.3401,-0.3447,-0.3366,-0.3372,-0.3612,-0.3616,-0.3621,-0.367,0,0,0,0,0,0,-0.3054,-0.3073,-0.3107,-0.3146,-0.3164,-0.3271,-0.3222,-0.3226,-0.3256,-0.3252,-0.3296,-0.3301,-0.3308,-0.3392,-0.3407,-0.3454,-0.3377,-0.3608,-0.3614,-0.3619,-0.3664,-0.3675,-0.3685,0,0,0,0,0,-0.3048,-0.3118,-0.3109,-0.3124,-0.3206,-0.3273,-0.3284,-0.3289,-0.326,-0.3295,-0.3315,-0.33,-0.3439,-0.34,-0.3417,-0.3466,-0.3605,-0.3612,-0.3619,-0.3659,-0.3673,-0.3685,0,0,0,0,0,0,-0.3086,-0.3123,-0.3113,-0.3197,-0.3232,-0.3269,-0.3313,-0.3303,-0.3348,-0.3343,-0.3348,-0.3359,-0.344,-0.3461,-0.3417,-0.3559,-0.3518,-0.3529,-0.3543,-0.3556,-0.3566,-0.3561,-0.3382,0,0,0,0,0,-0.3103,-0.3153,-0.3183,-0.3255,-0.3273,-0.329,-0.332,-0.332,-0.3357,-0.3372,-0.3398,-0.3436,-0.3489,-0.3523,-0.3573,-0.3666,-0.3677,-0.3709,-0.3719,-0.3727,-0.3737,-0.3791,-0.3806,-0.3645,-0.3645,-0.3645,0,0,-0.3142,-0.3168,-0.3199,-0.3263,-0.329,-0.3344,-0.3303,-0.336,-0.3401,-0.3382,-0.3458,-0.3478,-0.3521,-0.3608,-0.3648,-0.3628,-0.3784,-0.3736,-0.3743,-0.3748,-0.38,-0.3815,-0.3828,-0.365,-0.3649,-0.3648,0,0,-0.3239,-0.3262,-0.3325,-0.3353,-0.3394,-0.3405,-0.3421,-0.3459,-0.3471,-0.3547,-0.3534,-0.3584,-0.3673,-0.3705,-0.3733,-0.3843,-0.3833,-0.386,-0.3915,-0.3967,-0.398,-0.3991,-0.4033,-0.4048,-0.3869,-0.3869,-0.3869,0,-0.3281,-0.3359,-0.336,-0.3419,-0.3449,-0.3432,-0.3498,-0.3525,-0.3582,-0.3604,-0.358,-0.3693,-0.3721,-0.3817,-0.3843,-0.3866,-0.3886,-0.3855,-0.3977,-0.3989,-0.4,-0.404,-0.4055,-0.3872,-0.3872,-0.3871,-0.3871,0,-0.3411,-0.3465,-0.3512,-0.3565,-0.36,-0.3662,-0.3675,-0.371,-0.3708,-0.3723,-0.3802,-0.3834,-0.3892,-0.3914,-0.3912,-0.401,-0.3997,-0.3975,-0.3934,-0.4018,-0.4056,-0.4071,-0.3877,-0.3876,-0.3875,-0.3874,0,0,-0.3535,-0.3587,-0.3605,-0.363,-0.3674,-0.3717,-0.378,-0.3834,-0.3866,-0.3905,-0.396,-0.4036,-0.4017,-0.4049,-0.4051,-0.4096,-0.4185,-0.407,-0.4071,-0.4092,-0.4298,-0.4315,-0.4333,-0.4177,-0.418,-0.4182,-0.4295,0,-0.3637,-0.3745,-0.3748,-0.3848,-0.39,-0.3885,-0.394,-0.3975,-0.399,-0.4038,-0.4056,-0.4111,-0.408,-0.4099,-0.4143,-0.4165,-0.4227,-0.4156,-0.4231,-0.4234,-0.4223,-0.4352,-0.4371,-0.4476,-0.431,-0.4312,-0.4314,0,-0.3771,-0.3814,-0.3918,-0.3957,-0.3979,-0.4028,-0.4079,-0.4124,-0.4164,-0.4172,-0.4208,-0.4204,-0.4271,-0.4226,-0.4319,-0.4271,-0.4302,-0.4317,-0.4322,-0.4331,-0.428,-0.4368,-0.4509,-0.4526,-0.4337,-0.4335,-0.4333,0,-0.3854,-0.3938,-0.4011,-0.4033,-0.4079,-0.4114,-0.4135,-0.4172,-0.4205,-0.4251,-0.4273,-0.4325,-0.4355,-0.4397,-0.4409,-0.4374,-0.4503,-0.4459,-0.4515,-0.4515,-0.4545,-0.4543,-0.4696,-0.456,-0.456,-0.4559,-0.4559,0,-0.397,-0.4035,-0.405,-0.4095,-0.4169,-0.4173,-0.4246,-0.4265,-0.4299,-0.435,-0.434,-0.4389,-0.44,-0.4451,-0.4461,-0.4539,-0.4551,-0.4562,-0.4564,-0.4564,-0.4564,-0.4586,-0.4581,-0.4563,-0.4563,-0.4562,-0.4561,0,-0.4076,-0.4088,-0.4168,-0.4204,-0.4215,-0.4268,-0.4301,-0.4346,-0.436,-0.4425,-0.4441,-0.4464,-0.4524,-0.4539,-0.4611,-0.4618,-0.4711,-0.4705,-0.4697,-0.4698,-0.4754,-0.475,-0.4929,-0.4954,-0.4799,-0.4801,-0.4802,0,-0.415,-0.42,-0.4242,-0.4274,-0.4297,-0.435,-0.4383,-0.4389,-0.4425,-0.4475,-0.4515,-0.4574,-0.4622,-0.4719,-0.4744,-0.48,-0.4797,-0.4856,-0.4806,-0.4805,-0.4802,-0.48,-0.4806,-0.4866,-0.4868,-0.4869,-0.487,0,-0.4281,-0.4285,-0.4332,-0.4383,-0.4423,-0.4463,-0.4502,-0.453,-0.4542,-0.4583,-0.4644,-0.4681,-0.4754,-0.4814,-0.4871,-0.4895,-0.4887,-0.4886,-0.4902,-0.4904,-0.4899,-0.4906,-0.4726,-0.4882,-0.4881,-0.488,-0.488,-0.4879,-0.4375,-0.442,-0.4456,-0.4511,-0.454,-0.4577,-0.4622,-0.4641,-0.4691,-0.4751,-0.4752,-0.4819,-0.486,-0.4934,-0.4962,-0.5016,-0.4999,-0.5022,-0.5028,-0.5035,-0.5041,-0.4888,-0.5026,-0.5026,-0.5026,-0.5025,-0.5025,0,-0.4508,-0.4531,-0.4581,-0.4635,-0.4678,-0.4663,-0.4706,-0.4744,-0.4803,-0.484,-0.4887,-0.4959,-0.5017,-0.5046,-0.5104,-0.5143,-0.514,-0.5158,-0.5157,-0.5163,-0.5052,-0.5033,-0.5159,-0.5159,-0.5159,-0.5159,-0.5159,-0.5159,-0.4583,-0.4658,-0.4666,-0.4757,-0.478,-0.4845,-0.4871,-0.4906,-0.4936,-0.5016,-0.5063,-0.5081,-0.5117,-0.5178,-0.5231,-0.5239,-0.5262,-0.5283,-0.5288,-0.5184,-0.5171,-0.5158,-0.514,-0.5287,-0.5287,-0.5395,-0.5396,-0.5397]}]]